Date,TemperatureHighF,TemperatureAvgF,TemperatureLowF,DewpointHighF,DewpointAvgF,DewpointLowF,HumidityHigh,HumidityAvg,HumidityLow,PressureMaxIn,PressureMinIn,WindSpeedMaxMPH,WindSpeedAvgMPH,GustSpeedMaxMPH,PrecipitationSumIn
2013-1-1,0.0,0.0,0.0,64.9,64.9,64.9,0,0,100,30.05,29.88,0,0,0,0.00
2013-1-2,0.0,0.0,0.0,64.9,64.9,64.9,0,0,100,29.93,29.83,0,0,0,0.00
2013-1-3,0.0,0.0,0.0,64.9,64.9,64.9,0,0,100,29.98,29.87,0,0,0,0.00
2013-1-4,0.0,0.0,0.0,64.9,64.9,64.9,0,0,100,30.09,29.95,0,0,0,0.00
2013-1-5,0.0,0.0,0.0,64.9,64.9,64.9,0,0,100,30.11,29.99,0,0,0,0.00
2013-1-6,0.0,0.0,0.0,64.9,64.9,64.9,0,0,100,30.03,29.89,0,0,0,0.00
2013-1-7,0.0,0.0,0.0,64.9,64.9,64.9,0,0,100,30.00,29.92,0,0,0,0.00
2013-1-8,0.0,0.0,0.0,64.9,64.9,64.9,0,0,100,30.04,29.93,0,0,0,0.00
2013-1-9,0.0,0.0,0.0,64.9,64.9,64.9,0,0,100,30.10,29.99,0,0,0,0.00
2013-1-10,0.0,0.0,0.0,64.9,64.9,64.9,0,0,100,30.13,30.00,0,0,0,0.00
2013-1-11,0.0,0.0,0.0,64.9,64.9,64.9,0,0,100,30.01,29.98,0,0,0,0.00
2013-1-12,0.0,0.0,0.0,64.9,64.9,64.9,0,0,100,30.02,29.91,0,0,0,0.00
2013-1-13,0.0,0.0,0.0,64.9,64.9,64.9,0,0,100,29.97,29.90,0,0,0,0.00
2013-1-14,0.0,0.0,0.0,64.9,64.9,64.9,0,0,100,30.01,29.94,0,0,0,0.00
2013-1-25,0.0,0.0,0.0,64.9,64.9,64.9,0,0,100,30.03,30.03,0,0,0,0.00
2013-2-13,0.0,0.0,0.0,64.9,64.9,64.9,0,0,100,29.85,29.76,0,0,0,0.00
2013-2-14,0.0,0.0,0.0,64.9,64.9,64.9,0,0,100,29.88,29.73,0,0,0,0.00
2013-2-15,0.0,0.0,0.0,64.9,64.9,64.9,0,0,100,29.91,29.80,0,0,0,0.00
2013-2-16,0.0,0.0,0.0,64.9,64.9,64.9,0,0,100,29.96,29.77,0,0,0,0.00
2013-2-17,0.0,0.0,0.0,64.9,64.9,64.9,0,0,100,30.17,29.95,0,0,0,0.00
2013-2-18,0.0,0.0,0.0,64.9,64.9,64.9,0,0,100,30.16,30.05,0,0,0,0.00
2013-2-19,0.0,0.0,0.0,64.9,64.9,64.9,0,0,100,30.05,29.93,0,0,0,0.00
2013-2-20,0.0,0.0,0.0,64.9,64.9,64.9,0,0,100,29.95,29.91,0,0,0,0.00
2013-2-21,0.0,0.0,0.0,64.9,64.9,64.9,0,0,100,29.95,29.95,0,0,0,0.00
2013-2-22,0.0,0.0,0.0,64.9,64.9,64.9,0,0,100,29.95,29.95,0,0,0,0.00
2013-2-23,0.0,0.0,0.0,64.9,64.9,64.9,0,0,100,29.95,29.95,0,0,0,0.00
2013-2-24,0.0,0.0,0.0,64.9,64.9,64.9,0,0,100,29.95,29.95,0,0,0,0.00
2013-2-25,0.0,0.0,0.0,64.9,64.9,64.9,0,0,100,29.95,29.95,0,0,0,0.00
2013-2-26,0.0,0.0,0.0,64.9,64.9,64.9,0,0,100,29.95,29.95,0,0,0,0.00
2013-2-27,0.0,0.0,0.0,64.9,64.9,64.9,0,0,100,29.95,29.95,0,0,0,0.00
2013-2-28,0.0,0.0,0.0,64.9,64.9,64.9,0,0,100,29.95,29.95,0,0,0,0.00
2013-3-1,0.0,0.0,0.0,64.9,64.9,64.9,0,0,100,29.95,29.95,0,0,0,0.00
2013-3-2,0.0,0.0,0.0,64.9,64.9,64.9,0,0,100,29.95,29.95,0,0,0,0.00
2013-3-3,0.0,0.0,0.0,64.9,64.9,64.9,0,0,100,29.95,29.95,0,0,0,0.00
2013-3-4,0.0,0.0,0.0,64.9,64.9,64.9,0,0,100,29.95,29.95,0,0,0,0.00
2013-3-5,0.0,0.0,0.0,64.9,64.9,64.9,0,0,100,29.95,29.95,0,0,0,0.00
2013-3-6,0.0,0.0,0.0,64.9,64.9,64.9,0,0,100,29.95,29.95,0,0,0,0.00
2013-3-7,0.0,0.0,0.0,64.9,64.9,64.9,0,0,100,29.95,29.95,0,0,0,0.00
2013-3-8,0.0,0.0,0.0,64.9,64.9,64.9,0,0,100,29.95,29.95,0,0,0,0.00
2013-3-9,0.0,0.0,0.0,64.9,64.9,64.9,0,0,100,29.95,29.95,0,0,0,0.00
2013-3-10,0.0,0.0,0.0,64.9,64.9,64.9,0,0,100,29.95,29.95,0,0,0,0.00
2013-3-11,0.0,0.0,0.0,64.9,64.9,64.9,0,0,100,29.95,29.95,0,0,0,0.00
2013-3-12,0.0,0.0,0.0,64.9,64.9,64.9,0,0,100,29.95,29.95,0,0,0,0.00
2013-3-13,0.0,0.0,0.0,64.9,64.9,64.9,0,0,100,29.95,29.95,0,0,0,0.00
2013-5-7,83.1,76.3,73.0,63.2,61.4,60.6,65,60,50,29.95,29.88,2,1,2,0.00
2013-5-8,81.7,69.1,0.0,64.5,59.1,54.2,95,73,53,30.01,29.92,2,1,2,0.00
2013-5-9,89.8,71.0,54.1,65.3,59.9,52.2,95,71,40,30.02,29.93,13,0,13,0.00
2013-5-10,92.7,76.4,61.7,72.2,66.2,59.4,95,73,46,30.01,29.88,9,0,9,7.72
2013-5-11,92.5,78.3,66.9,74.7,69.6,64.9,95,77,48,29.95,29.87,13,2,13,0.00
2013-5-12,89.6,78.0,70.0,76.8,71.6,67.8,95,82,59,29.94,29.81,13,1,13,0.00
2013-5-13,90.5,76.9,67.6,72.4,68.2,58.9,95,76,51,29.99,29.89,20,1,20,0.00
2013-5-14,85.6,74.3,62.4,62.2,57.1,53.3,82,57,38,30.06,29.97,61,4,61,0.00
2013-5-15,86.5,73.4,57.6,61.8,58.8,54.2,91,63,41,30.07,29.95,11,2,11,0.00
2013-5-16,88.0,74.9,62.1,65.0,61.7,58.6,90,66,41,29.99,29.88,8,2,8,0.00
2013-5-17,91.9,76.8,62.8,69.1,63.8,59.7,93,67,39,29.96,29.90,7,1,7,0.00
2013-5-18,94.1,77.7,63.9,72.9,67.3,60.7,92,72,47,29.99,29.89,11,1,11,0.00
2013-5-19,90.0,77.1,67.1,72.4,68.7,64.7,95,77,48,29.98,29.85,21,1,21,0.00
2013-5-20,91.2,74.6,69.1,77.2,70.4,67.6,98,88,48,29.95,29.85,6,0,6,0.00
2013-5-21,87.1,74.2,68.2,75.9,70.2,66.6,98,88,63,29.89,29.78,11,1,11,0.04
2013-5-22,91.8,76.9,67.5,76.2,70.9,67.2,99,83,55,29.84,29.76,6,0,6,0.01
2013-5-23,91.9,77.9,67.1,76.2,70.2,66.0,97,79,53,29.91,29.81,8,1,8,0.00
2013-5-24,95.5,79.9,69.8,75.2,69.8,63.7,96,74,44,29.97,29.85,7,1,7,0.00
2013-5-25,90.1,80.2,71.2,72.1,66.5,65.0,81,65,46,30.05,29.92,8,1,8,0.00
2013-5-26,88.9,84.7,80.1,67.3,64.8,62.9,60,51,42,30.06,29.96,10,4,10,0.00
2013-5-27,87.4,81.6,66.2,69.9,66.9,62.9,89,62,49,30.05,29.91,11,4,11,0.00
2013-5-28,87.1,79.2,72.5,74.5,70.7,68.3,92,76,58,29.99,29.91,49,4,49,0.00
2013-5-29,82.6,77.3,71.2,73.6,71.1,69.1,96,82,67,29.98,29.89,97,2,97,0.00
2013-5-30,88.3,76.6,71.2,75.7,71.5,69.1,96,85,60,29.93,29.84,4,1,4,0.00
2013-5-31,87.6,78.4,72.3,76.0,72.9,70.5,97,84,62,29.93,29.87,0,0,0,0.00
2013-6-1,88.0,78.7,73.9,75.7,73.4,71.2,98,85,64,29.92,29.82,14,0,14,0.00
2013-6-2,88.3,80.9,75.4,76.4,73.1,71.1,96,77,58,29.90,29.81,11,1,11,0.00
2013-6-3,82.4,78.2,73.0,75.5,73.3,70.9,96,85,75,29.91,29.81,99,1,99,0.00
2013-6-4,80.4,75.6,71.8,76.1,73.3,70.3,98,92,82,29.93,29.84,4,0,4,0.00
2013-6-5,78.8,76.9,73.6,77.1,75.6,72.7,98,95,92,29.90,29.75,8,0,8,0.00
2013-6-6,81.5,75.6,72.5,79.6,74.0,69.2,99,95,81,29.76,29.64,3,0,3,0.00
2013-6-7,86.0,77.3,72.9,80.0,74.8,71.1,98,92,77,29.88,29.70,8,0,8,0.00
2013-6-8,91.2,80.7,73.8,79.5,74.9,71.5,97,83,54,29.98,29.85,30,0,30,0.00
2013-6-9,93.2,82.2,74.7,77.2,73.2,68.0,97,76,47,29.99,29.88,8,1,8,0.00
2013-6-10,94.5,82.2,74.1,77.1,74.1,70.0,96,78,47,29.96,29.87,9,1,9,0.00
2013-6-11,91.6,78.9,69.3,78.0,73.3,66.6,98,85,54,29.96,29.87,4,1,5,0.02
2013-6-12,91.4,77.3,72.3,79.7,74.0,70.0,99,90,58,29.96,29.89,49,0,49,0.00
2013-6-13,91.8,76.4,69.1,78.3,72.7,68.2,97,89,52,29.94,29.83,8,0,8,0.00
2013-6-14,90.9,79.5,70.7,79.0,73.7,69.8,98,84,58,29.87,29.77,2,0,2,0.00
2013-6-15,92.7,80.7,70.9,78.6,73.8,69.6,96,81,53,29.93,29.83,2,0,2,0.00
2013-6-16,92.8,81.4,74.1,78.9,75.0,71.4,96,82,52,29.98,29.89,29,1,29,0.00
2013-6-17,93.4,80.0,73.8,78.7,74.9,69.7,98,86,49,29.98,29.88,4,0,4,0.00
2013-6-18,94.3,79.1,72.9,78.7,74.7,71.4,97,88,52,29.95,29.86,1,0,1,0.00
2013-6-19,93.9,78.0,72.1,79.0,73.8,69.7,99,88,48,29.94,29.85,4,0,4,0.00
2013-6-20,81.1,77.3,72.7,79.0,74.8,70.7,95,92,77,29.98,29.91,0,0,0,0.00
2013-6-21,91.9,77.7,71.1,76.0,72.1,69.9,97,84,53,29.99,29.92,1,0,1,0.00
2013-6-22,83.5,79.4,70.7,75.9,74.0,69.8,98,84,77,29.99,29.90,1,0,1,0.00
2013-6-23,83.5,83.5,83.5,75.6,75.6,75.6,77,77,77,30.02,29.93,0,0,0,0.00
2013-6-24,83.5,83.5,83.5,75.6,75.6,75.6,77,77,77,30.04,29.94,0,0,0,0.00
2013-6-25,83.5,83.5,83.5,75.6,75.6,75.6,77,77,77,30.02,29.90,0,0,0,0.00
2013-6-26,83.5,62.5,0.0,75.6,73.7,70.4,97,76,77,29.98,29.89,0,0,0,0.00
2013-6-27,84.7,51.5,0.0,78.9,74.3,70.3,98,61,76,29.94,29.84,3,0,3,0.00
2013-6-28,0.0,0.0,0.0,76.4,76.4,76.4,0,0,100,29.88,29.76,0,0,0,0.00
2013-6-29,88.2,18.5,0.0,76.4,75.7,72.2,95,19,63,29.81,29.72,0,0,0,0.00
2013-6-30,85.5,78.1,73.6,80.1,75.4,72.7,98,92,74,29.83,29.73,24,0,24,0.00
2013-7-1,84.0,74.9,70.7,80.9,73.8,70.1,99,96,78,29.91,29.78,1,0,1,0.00
2013-7-2,87.3,76.8,72.5,79.2,74.6,71.3,99,93,69,29.99,29.85,1,0,1,0.00
2013-7-3,87.6,75.7,71.8,78.2,73.7,69.7,99,94,68,30.02,29.92,1,0,1,0.00
2013-7-4,89.8,78.4,71.6,78.0,74.3,70.7,99,88,59,30.03,29.93,1,0,1,0.00
2013-7-5,87.4,76.8,72.5,77.5,73.7,70.6,99,90,65,30.02,29.93,1,0,1,0.00
2013-7-6,91.4,80.4,73.9,79.2,74.3,69.3,99,84,51,29.99,29.88,1,0,1,0.00
2013-7-7,91.6,80.7,75.0,77.3,74.3,70.0,97,82,51,29.99,29.89,12,0,12,0.00
2013-7-8,93.2,80.7,73.4,77.3,73.5,68.3,98,81,46,30.04,29.95,2,0,2,0.00
2013-7-9,87.8,77.4,72.1,76.3,73.3,70.5,97,88,59,30.04,29.94,1,0,1,0.00
2013-7-10,88.5,76.9,70.7,76.5,72.8,70.1,99,88,63,29.98,29.88,1,0,1,0.00
2013-7-11,88.5,77.5,72.0,79.3,73.5,70.8,97,88,67,29.93,29.83,0,0,0,0.00
2013-7-12,91.0,76.6,71.8,77.9,72.6,70.3,97,88,62,29.86,29.78,1,0,1,0.00
2013-7-13,85.1,75.3,71.8,79.1,73.5,70.4,99,94,74,29.89,29.80,1,0,1,0.07
2013-7-14,82.4,75.3,72.7,78.2,73.3,70.6,98,93,82,29.99,29.85,2,0,2,0.01
2013-7-15,87.4,77.1,71.6,74.9,72.1,70.1,97,86,61,29.98,29.92,0,0,0,0.00
2013-7-16,87.3,81.7,75.7,73.7,70.8,67.8,91,70,59,30.00,29.93,0,0,0,0.00
2013-7-17,86.4,78.7,72.9,73.4,71.1,68.7,93,78,59,30.01,29.91,0,0,0,0.00
2013-7-18,81.5,73.7,69.8,75.6,71.8,68.3,98,94,80,30.02,29.94,0,0,0,0.00
2013-7-19,91.2,78.7,70.2,78.7,73.7,69.6,99,86,52,30.00,29.91,0,0,0,0.02
2013-7-20,89.6,77.8,73.8,81.4,74.4,70.0,98,90,66,30.00,29.91,0,0,0,0.00
2013-7-21,88.9,79.8,73.6,80.1,75.7,71.7,98,88,66,30.03,29.93,0,0,0,0.00
2013-7-22,91.2,79.9,72.7,78.6,74.9,71.2,97,86,58,30.03,29.95,0,0,0,0.00
2013-7-23,95.4,81.2,72.9,78.8,74.7,71.7,98,82,52,30.00,29.88,1,0,1,0.00
2013-7-24,93.6,80.4,72.0,78.5,73.4,70.5,97,81,54,29.93,29.83,0,0,0,0.00
2013-7-25,94.1,80.6,72.1,78.4,74.4,70.4,96,82,60,29.92,29.81,0,0,0,0.00
2013-7-26,94.8,81.2,74.1,80.9,75.7,71.5,96,84,57,29.93,29.85,0,0,0,0.00
2013-7-27,96.3,80.9,74.8,79.4,74.7,71.2,94,82,54,29.90,29.82,0,0,0,0.00
2013-7-28,94.8,78.8,72.3,78.5,73.9,69.9,97,86,54,29.95,29.84,1,0,1,0.04
2013-7-29,92.5,77.2,71.1,78.4,73.6,67.6,98,90,56,30.03,29.91,1,0,1,0.00
2013-7-30,90.3,78.6,73.4,79.8,75.4,72.5,99,90,63,30.04,29.95,1,0,1,0.00
2013-7-31,90.9,78.2,73.8,78.7,74.8,71.0,98,90,61,30.00,29.88,1,0,1,0.00
2013-8-1,94.8,79.0,72.7,79.3,74.1,70.4,99,86,47,29.94,29.81,1,0,1,0.13
2013-8-2,89.8,78.7,71.1,78.9,74.9,70.5,99,89,65,29.94,29.83,1,0,1,0.02
2013-8-3,88.0,78.6,75.2,80.6,75.5,71.6,97,90,71,30.01,29.91,1,0,1,0.06
2013-8-4,91.2,81.0,75.2,82.0,77.2,74.3,97,89,65,30.00,29.90,2,0,2,0.00
2013-8-5,93.2,81.8,75.6,82.0,76.9,74.4,97,86,63,29.94,29.83,0,0,0,0.00
2013-8-6,90.5,80.5,75.4,81.1,76.8,74.2,97,89,65,29.88,29.79,2,0,2,0.02
2013-8-7,90.9,78.6,73.8,79.1,75.4,72.9,98,91,61,29.85,29.78,1,0,1,0.02
2013-8-8,93.2,80.8,74.3,80.2,74.9,71.1,99,84,50,29.90,29.79,1,0,1,0.01
2013-8-9,89.8,77.4,73.2,78.8,74.7,72.4,99,92,59,29.94,29.84,1,0,1,0.05
2013-8-10,92.7,81.3,73.2,79.9,74.2,69.8,99,81,52,29.99,29.91,1,0,1,0.00
2013-8-11,95.2,83.0,74.7,77.9,74.6,72.1,97,78,49,30.01,29.92,1,0,1,0.00
2013-8-12,93.6,81.6,73.2,77.7,73.6,69.5,97,79,49,30.00,29.88,1,0,1,0.00
2013-8-13,93.0,81.3,73.9,80.1,75.6,72.8,97,84,59,29.94,29.82,2,1,2,0.00
2013-8-14,93.0,80.1,72.1,78.2,73.8,69.6,97,83,50,29.92,29.81,2,1,2,0.00
2013-8-15,83.7,78.5,74.1,78.5,75.9,73.4,98,92,81,29.95,29.84,1,0,1,0.00
2013-8-16,93.2,81.8,75.7,78.4,75.5,72.9,97,83,54,29.94,29.84,1,0,1,0.00
2013-8-17,93.6,80.7,75.2,81.7,75.8,71.4,98,87,51,29.96,29.86,1,0,1,0.00
2013-8-18,93.0,80.9,75.4,79.1,75.8,70.2,98,86,56,29.98,29.85,1,0,1,0.01
2013-8-19,92.7,78.6,72.3,79.3,74.5,70.1,98,88,54,29.97,29.84,1,0,1,0.00
2013-8-20,86.7,78.4,72.9,80.2,75.2,72.0,99,90,69,29.94,29.87,1,0,1,0.00
2013-8-21,89.2,79.8,76.1,79.1,76.1,74.2,96,89,64,29.95,29.86,2,0,2,0.00
2013-8-22,93.0,80.3,74.1,79.2,75.7,71.8,98,87,51,29.94,29.83,1,0,1,0.00
2013-8-23,87.6,77.3,74.1,81.8,75.8,73.9,99,95,72,29.90,29.82,1,0,1,0.00
2013-8-24,92.5,78.9,73.8,80.9,75.4,71.4,99,90,57,30.01,29.86,2,0,2,0.00
2013-8-25,88.0,78.0,74.5,78.3,75.4,72.1,98,92,64,30.03,29.91,1,0,1,0.00
2013-8-26,89.4,77.5,70.9,78.2,74.2,69.8,99,90,61,29.99,29.88,1,0,1,0.00
2013-8-27,86.4,75.9,70.7,77.3,73.0,70.1,99,91,66,29.93,29.86,1,0,1,0.00
2013-8-28,86.9,76.2,72.1,76.3,73.0,69.6,99,91,59,29.93,29.85,1,0,1,0.00
2013-8-29,89.1,78.9,72.1,77.6,74.5,71.3,99,87,63,29.92,29.82,2,1,2,0.00
2013-8-30,86.7,78.4,71.8,80.3,75.3,70.6,98,90,69,29.89,29.78,2,1,2,0.00
2013-8-31,89.8,78.8,72.1,79.4,74.0,71.0,98,86,61,29.88,29.80,2,0,2,0.00
2013-9-1,90.7,78.1,72.7,81.0,74.5,71.2,98,89,62,29.89,29.82,2,1,2,0.00
2013-9-2,76.8,76.8,76.8,75.0,75.0,75.0,94,94,94,29.93,29.83,0,0,0,0.00
2013-9-3,76.8,76.8,76.8,75.0,75.0,75.0,94,94,94,29.92,29.83,0,0,0,0.00
2013-9-4,88.3,77.9,75.4,78.4,75.5,72.9,96,92,71,29.95,29.84,1,0,1,0.00
2013-9-5,89.8,82.4,77.7,79.2,76.7,75.5,95,84,64,29.96,29.87,1,0,1,0.00
2013-9-6,90.3,80.9,71.8,79.6,74.9,70.5,97,83,61,29.97,29.78,2,0,2,0.00
2013-9-7,87.1,77.6,72.9,78.5,74.1,70.9,99,90,66,29.89,29.80,1,0,1,0.00
2013-9-8,77.9,73.2,72.0,73.1,71.3,70.7,96,94,85,29.85,29.73,2,1,2,0.00
2013-9-9,77.0,77.0,77.0,72.9,72.9,72.9,87,87,87,29.89,29.79,1,1,1,0.00
2013-9-10,77.0,77.0,77.0,72.9,72.9,72.9,87,87,87,29.92,29.85,1,1,1,0.00
2013-9-11,85.5,77.7,75.0,75.4,73.2,72.9,96,86,69,29.93,29.85,1,1,1,0.00
2013-9-12,84.2,78.6,73.8,77.2,75.1,71.4,97,89,77,29.90,29.76,2,1,2,0.00
2013-9-13,89.4,78.5,70.3,77.4,73.0,69.0,98,84,63,29.80,29.69,97,5,97,0.00
2013-9-14,88.2,79.9,72.0,77.8,74.2,70.5,97,84,67,29.85,29.72,4,3,4,0.00
2013-9-15,87.8,76.1,0.0,78.4,73.8,70.6,98,92,69,29.95,29.82,2,0,2,0.00
2013-9-16,87.4,77.4,74.1,79.5,75.0,72.7,99,93,71,29.93,29.84,49,0,49,0.07
2013-9-17,85.1,76.0,73.9,78.9,74.6,72.1,99,95,80,29.91,29.81,1,0,1,0.00
2013-9-18,88.2,77.0,72.7,79.0,74.5,71.8,99,92,67,29.91,29.81,2,0,2,0.00
2013-9-19,88.2,77.5,70.5,79.6,70.0,17.6,99,84,10,29.91,29.83,103,8,103,0.00
2013-9-20,86.2,78.8,72.7,75.4,70.0,20.6,98,79,10,29.90,29.77,119,8,119,0.31
2013-9-21,72.7,71.9,71.8,69.9,69.7,69.7,93,93,91,29.82,29.77,2,2,2,0.00
2013-9-22,88.3,78.2,71.8,76.5,72.7,69.7,93,84,62,30.19,29.77,53,2,53,0.47
2013-9-23,82.9,79.6,75.4,79.6,77.0,74.5,98,92,85,30.06,29.94,118,9,118,0.47
2013-9-24,85.8,77.7,72.9,83.0,75.8,70.8,99,94,80,30.06,29.99,1,0,1,0.00
2013-9-25,80.8,75.8,72.1,79.6,74.2,71.3,99,95,83,30.02,29.89,0,0,0,0.00
2013-9-26,86.2,78.2,73.2,83.6,76.7,72.4,99,95,80,29.98,29.91,1,0,1,0.00
2013-9-27,86.7,77.8,72.3,75.7,72.7,68.3,98,85,56,30.02,29.93,2,0,2,0.01
2013-9-28,88.0,78.5,70.7,75.0,72.0,69.5,97,82,56,30.07,29.96,2,1,2,0.09
2013-9-29,87.8,77.7,71.2,75.3,72.0,69.8,97,83,58,30.07,29.95,2,2,2,0.00
2013-9-30,88.9,76.5,69.8,76.7,71.7,68.6,98,86,53,30.10,29.98,2,2,2,0.00
2013-10-1,88.2,78.3,70.7,77.4,72.2,70.1,99,83,58,30.12,30.02,2,0,2,0.00
2013-10-2,88.9,78.6,73.4,76.4,73.4,70.8,98,85,63,30.13,30.03,2,2,2,0.01
2013-10-3,87.3,76.9,72.9,79.1,74.4,72.0,98,92,67,30.14,30.03,2,0,2,0.00
2013-10-4,87.3,78.0,72.5,78.9,73.8,71.6,99,88,63,30.16,30.07,2,0,2,0.01
2013-10-5,87.3,77.7,70.7,74.7,71.0,67.2,97,82,53,30.14,30.01,2,2,2,0.04
2013-10-6,87.1,77.6,69.8,76.1,72.3,68.6,98,85,62,30.07,29.96,2,2,2,0.01
2013-10-7,75.7,75.4,74.3,74.3,72.7,72.6,97,91,91,29.99,29.90,2,2,2,0.01
2013-10-8,86.0,78.4,70.3,78.6,73.5,69.6,99,86,69,30.04,29.93,2,1,2,0.24
2013-10-9,84.7,78.6,73.0,77.0,73.1,70.9,96,84,67,30.11,30.01,8,2,8,0.24
2013-10-10,86.0,76.0,68.5,72.9,69.8,67.3,97,82,59,30.12,30.03,2,2,2,0.00
2013-10-11,86.9,75.1,66.4,72.8,67.4,63.8,98,79,48,30.12,30.02,2,1,2,0.00
2013-10-12,86.9,74.3,64.4,72.2,68.0,63.6,99,82,53,30.13,30.05,2,2,2,0.00
2013-10-13,85.5,75.3,68.7,74.3,68.5,64.8,97,81,53,30.15,30.05,2,1,2,0.00
2013-10-14,85.8,73.9,65.7,70.2,66.8,64.6,98,80,52,30.12,29.99,2,1,2,0.00
2013-10-15,86.5,75.1,67.6,72.2,67.8,64.1,97,80,49,30.08,29.95,2,1,2,0.00
2013-10-16,87.4,75.3,66.6,74.2,69.0,65.7,98,82,50,30.06,29.97,3,1,3,0.00
2013-10-17,85.8,75.7,68.0,74.7,70.9,67.1,97,86,68,30.07,29.97,2,1,2,0.00
2013-10-18,89.4,76.9,67.6,75.7,70.1,66.8,98,82,49,30.08,29.97,2,1,2,0.00
2013-10-19,89.8,78.6,69.4,76.5,72.3,68.3,97,82,56,30.06,29.95,2,1,2,0.00
2013-10-20,88.5,77.5,72.1,78.6,73.5,70.7,97,88,65,30.06,29.96,2,1,2,0.00
2013-10-21,89.8,77.9,70.0,79.6,73.7,68.8,97,88,65,30.10,30.00,2,1,2,0.00
2013-10-22,90.1,79.2,71.1,78.6,73.5,69.9,98,84,59,30.06,29.93,2,1,2,0.00
2013-10-23,83.5,75.6,69.6,79.0,71.8,64.1,99,88,67,30.08,29.92,2,0,2,0.00
2013-10-24,75.6,70.3,66.9,65.2,61.0,55.8,83,72,61,30.22,30.07,2,2,2,0.00
2013-10-25,81.7,70.7,63.0,69.4,62.3,40.5,88,76,42,30.28,30.19,26,2,26,0.00
2013-10-26,82.4,70.8,61.9,65.5,61.5,58.5,90,74,49,30.26,30.14,2,2,2,0.01
2013-10-27,82.0,68.1,59.7,63.6,60.6,58.3,96,79,45,30.20,30.11,2,1,2,0.00
2013-10-28,84.0,71.9,61.2,67.2,63.5,60.6,98,77,49,30.25,30.15,2,1,2,0.00
2013-10-29,85.6,70.5,62.8,69.6,64.9,61.9,98,84,55,30.28,30.19,2,2,2,0.19
2013-10-30,74.3,74.3,74.3,66.7,66.7,66.7,77,77,77,30.28,30.15,2,2,2,0.19
2013-10-31,74.3,74.3,74.3,66.7,66.7,66.7,77,77,77,30.20,30.07,2,2,2,0.19
2013-11-1,74.3,74.3,74.3,66.7,66.7,66.7,77,77,77,30.11,29.98,2,2,2,0.19
2013-11-2,74.3,74.3,74.3,66.7,66.7,66.7,77,77,77,30.06,29.93,2,2,2,0.19
2013-11-3,74.3,74.3,74.3,66.7,66.7,66.7,77,77,77,30.15,30.03,2,2,2,0.19
2013-11-4,74.3,43.7,0.0,66.7,66.7,66.7,77,45,77,30.19,30.12,2,1,2,0.19
2013-11-5,0.0,0.0,0.0,66.7,66.7,66.7,0,0,100,30.17,30.10,0,0,0,0.19
2013-11-6,0.0,0.0,0.0,66.7,66.7,66.7,0,0,100,30.16,30.06,0,0,0,0.19
2013-11-7,0.0,0.0,0.0,66.7,66.7,66.7,0,0,100,30.13,30.03,0,0,0,0.19
2013-11-8,0.0,0.0,0.0,66.7,66.7,66.7,0,0,100,30.15,30.06,0,0,0,0.19
2013-11-9,0.0,0.0,0.0,66.7,66.7,66.7,0,0,100,30.21,30.12,0,0,0,0.19
2013-11-10,0.0,0.0,0.0,66.7,66.7,66.7,0,0,100,30.22,30.12,0,0,0,0.19
2013-11-11,0.0,0.0,0.0,66.7,66.7,66.7,0,0,100,30.22,30.12,0,0,0,0.19
2013-11-12,0.0,0.0,0.0,66.7,66.7,66.7,0,0,100,30.18,30.06,0,0,0,0.19
2013-11-13,0.0,0.0,0.0,66.7,66.7,66.7,0,0,100,30.32,30.11,0,0,0,0.19
2013-11-14,0.0,0.0,0.0,66.7,66.7,66.7,0,0,100,30.32,30.22,0,0,0,0.19
2013-11-15,0.0,0.0,0.0,66.7,66.7,66.7,0,0,100,30.24,30.10,0,0,0,0.19
2013-11-16,0.0,0.0,0.0,66.7,66.7,66.7,0,0,100,30.17,30.10,0,0,0,0.19
2013-11-17,0.0,0.0,0.0,66.7,66.7,66.7,0,0,100,30.16,30.07,0,0,0,0.19
2013-11-18,0.0,0.0,0.0,66.7,66.7,66.7,0,0,100,30.13,30.01,0,0,0,0.19
2013-11-19,0.0,0.0,0.0,66.7,66.7,66.7,0,0,100,30.05,29.95,0,0,0,0.19
2013-11-20,0.0,0.0,0.0,66.7,66.7,66.7,0,0,100,30.15,30.03,0,0,0,0.19
2013-11-21,0.0,0.0,0.0,66.7,66.7,66.7,0,0,100,30.23,30.13,0,0,0,0.19
2013-11-22,0.0,0.0,0.0,66.7,66.7,66.7,0,0,100,30.24,30.14,0,0,0,0.19
2013-11-23,0.0,0.0,0.0,66.7,66.7,66.7,0,0,100,30.18,30.06,0,0,0,0.19
2013-11-24,65.7,56.8,0.0,66.7,65.3,65.1,98,85,98,30.25,30.09,2,1,2,0.19
2013-11-25,65.7,65.7,65.7,65.1,65.1,65.1,98,98,98,30.27,30.12,2,2,2,0.19
2013-11-26,65.7,65.7,65.7,65.1,65.1,65.1,98,98,98,30.13,29.90,2,2,2,0.19
2013-11-27,65.7,65.7,65.7,65.1,65.1,65.1,98,98,98,30.25,29.88,2,2,2,0.19
2013-11-28,65.7,65.7,65.7,65.1,65.1,65.1,98,98,98,30.37,30.24,2,2,2,0.19
2013-11-29,65.7,65.7,65.7,65.1,65.1,65.1,98,98,98,30.38,30.27,2,2,2,0.19
2013-11-30,75.9,67.3,65.7,66.8,64.7,61.4,98,92,73,30.34,30.22,2,2,2,0.01
2013-12-1,77.5,67.5,61.3,68.2,64.0,59.9,99,89,69,30.23,30.08,2,2,2,0.01
2013-12-2,77.0,67.5,62.4,66.9,63.8,60.6,99,89,64,30.08,29.92,3,2,3,0.00
2013-12-3,79.0,67.9,59.7,67.7,63.0,58.9,99,85,63,30.09,30.00,2,2,2,0.00
2013-12-4,82.4,66.1,60.1,72.6,63.1,59.5,99,91,60,30.18,30.07,2,2,2,0.00
2013-12-5,84.2,80.4,62.6,72.1,67.0,61.8,99,65,56,30.25,30.15,2,2,2,0.00
2013-12-6,81.9,81.9,81.9,66.7,66.7,66.7,60,60,60,30.21,30.21,2,2,2,0.00
2013-12-7,81.9,81.9,81.9,66.7,66.7,66.7,60,60,60,30.21,30.21,2,2,2,0.00
2013-12-8,81.9,81.9,81.9,66.7,66.7,66.7,60,60,60,30.21,30.21,2,2,2,0.00
2013-12-9,81.9,81.9,81.9,66.7,66.7,66.7,60,60,60,30.21,30.21,2,2,2,0.00
2013-12-10,81.9,81.9,81.9,66.7,66.7,66.7,60,60,60,30.21,30.21,2,2,2,0.00
2013-12-11,81.9,81.9,81.9,66.7,66.7,66.7,60,60,60,30.21,30.21,2,2,2,0.00
2013-12-12,81.9,81.9,81.9,66.7,66.7,66.7,60,60,60,30.21,30.21,2,2,2,0.00
2013-12-13,84.0,69.4,64.2,71.4,66.5,63.4,99,91,61,29.90,29.76,2,2,2,0.00
2013-12-14,84.6,74.0,68.9,69.4,68.3,67.6,96,84,59,29.87,29.80,4,2,4,0.00
2013-12-15,63.0,56.6,53.1,54.0,48.9,47.6,91,76,62,29.93,29.84,2,1,2,0.00
2013-12-16,72.3,67.3,64.9,65.7,63.5,61.9,97,88,72,29.81,29.73,2,2,2,0.01
2013-12-17,75.6,73.4,70.9,70.3,69.7,68.8,97,88,81,29.70,29.62,2,2,2,0.00
2013-12-18,75.7,53.2,48.6,72.6,48.7,44.6,90,85,78,29.94,29.66,2,1,2,0.00
2013-12-19,79.9,62.3,48.4,60.1,53.5,44.6,93,75,46,29.93,29.82,2,2,2,0.01
2013-12-20,83.7,69.9,58.1,67.9,62.5,55.5,94,79,57,29.85,29.76,2,2,2,0.01
2013-12-21,86.0,74.9,66.6,72.4,66.8,19.7,95,77,55,29.82,29.71,34,2,34,0.00
2013-12-22,81.7,73.3,66.9,71.4,67.8,64.4,94,83,71,29.84,29.75,2,2,2,0.00
2013-12-23,85.6,74.6,66.2,75.2,68.3,63.8,96,82,59,29.86,29.78,2,2,2,0.00
2013-12-24,77.4,67.6,58.1,68.2,61.2,44.6,96,81,55,29.89,29.80,2,2,2,0.00
2013-12-25,79.2,66.6,58.1,65.0,56.7,48.8,84,71,61,29.87,29.76,2,2,2,0.01
2013-12-26,80.8,70.2,63.0,68.7,63.9,59.0,91,81,63,29.86,29.73,2,2,2,0.00
2013-12-27,70.2,70.2,70.2,66.1,66.1,66.1,87,87,87,29.89,29.75,2,2,2,0.00
2013-12-28,81.5,73.0,66.7,70.9,67.6,65.0,94,84,66,29.86,29.70,2,2,2,0.00
2013-12-29,78.4,74.5,72.0,75.1,70.8,68.1,95,88,79,29.72,29.60,8,2,8,0.00
2013-12-30,71.8,68.1,66.4,68.4,63.5,61.4,92,85,79,29.85,29.69,2,1,2,0.00
2013-12-31,66.4,64.2,63.5,61.4,56.9,55.5,84,77,75,29.95,29.82,2,2,2,0.00
2014-1-1,63.5,63.5,63.5,55.5,55.5,55.5,75,75,75,29.89,29.73,2,2,2,0.00
2014-1-2,63.5,63.5,63.5,55.5,55.5,55.5,75,75,75,29.73,29.58,2,2,2,0.00